OpenBCM V1.13 (Linux)

Packet Radio Mailbox

DB0FHN

[JN59NK Nuernberg]

 Login: GUEST





  
I0OJJ  > KEPS     21.01.26 02:33l 320 Lines 15318 Bytes #999 (0) @ AMSAT
BID : ORB26021.1
Read: OE5RCO DH1ME DJ6UX GUEST
Subj: 2Line Orbital Elements 26021.AMSAT
Path: DB0FHN<DB0RKB<DK0WUE<PD0LPM<PI8ZTM<CX2SA<EA2RCF<I0OJJ
Sent: 260121/0021z @:I0OJJ.ITA.EU [Rome] obcm1.13-37-gc689
From: I0OJJ @ I0OJJ.ITA.EU (Gustavo)
To:   KEPS @ AMSAT
X-Info: This message was generated automatically


QST de W1STR

AMSAT Orbital Elements for Amateur Satellites in TLE Format
From Orbital Analysis Office
New England Sci-Tech STEM Education Center
Natick MA January 21, 2026
To all radio amateurs


These element sets describe the orbits of various satellites 
in use by the amateur radio community. For details see:
www.amsat.org/keplerian-elements-formats/

A daily update of element sets is available at:
www.amsat.org/tle/daily-bulletin.txt
or without bulletin text:
www.amsat.org/tle/dailytle.txt


AO-07
1 07530U 74089B   26020.26657648 -.00000046  00000-0  34385-5 0  9996
2 07530 101.9967  31.9391 0012360  54.3516 317.4392 12.53695162341986
UO-11
1 14781U 84021B   26020.13352325  .00002113  00000-0  22323-3 0  9992
2 14781  97.7864 347.5807 0006727 324.2344  35.8423 14.90294464235077
AO-27
1 22825U 93061C   26020.17859038  .00000171  00000-0  82040-4 0  9996
2 22825  98.7084  87.5266 0008633 167.8437 192.2956 14.30892614685839
FO-29
1 24278U 96046B   26020.14639947  .00000028  00000-0  61075-4 0  9994
2 24278  98.5438 249.1183 0350799 120.4299 243.1994 13.53264843453148
GO-32
1 25397U 98043D   26019.92017086  .00000106  00000-0  65818-4 0  9990
2 25397  98.9959   9.0215 0000410 325.6660  34.4491 14.24389371430225
ISS
1 25544U 98067A   26020.17509289  .00021194  00000-0  38548-3 0  9999
2 25544  51.6334 312.1983 0007785  38.3265 321.8276 15.49442598548811
NO-44
1 26931U 01043C   26020.15353105  .00000229  00000-0  11657-3 0  9998
2 26931  67.0503 267.1374 0007193 267.5424  92.4855 14.31880281269257
SO-50
1 27607U 02058C   26019.98668201  .00001533  00000-0  19980-3 0  9997
2 27607  64.5505 227.3710 0073721 289.4626  69.8525 14.82561714242482
CO-55
1 27844U 03031E   26020.30033296  .00000492  00000-0  23252-3 0  9990
2 27844  98.6767  30.7073 0008574 253.3575 106.6663 14.24217322170626
CO-57
1 27848U 03031J   26020.07478300  .00000361  00000-0  17798-3 0  9990
2 27848  98.6794  30.3159 0008433 274.3933  85.6281 14.23519104170305
RS-22
1 27939U 03042A   26020.30502609  .00001307  00000-0  21132-3 0  9997
2 27939  98.3377 200.5370 0011838  23.1375 101.1934 14.73086315193772
CO-58
1 28895U 05043F   26019.64426214  .00001654  00000-0  27121-3 0  9993
2 28895  98.2755 172.3751 0013546 320.0332  39.9876 14.72062104 79890
CO-65
1 32785U 08021C   26020.20825562  .00011540  00000-0  76147-3 0  9995
2 32785  97.8135 358.8674 0009563 160.7688 199.3902 15.07584565962882
CO-66
1 32791U 08021J   26020.19783848  .00033989  00000-0  12896-2 0  9991
2 32791  97.7468  11.7163 0005512  99.8182 260.3678 15.26762995964669
RS-30
1 32953U 08025A   26020.25977828  .00000016  00000-0  46725-4 0  9990
2 32953  82.5023  87.4658 0018268 273.6736  86.2255 12.43173528801318
SRMSAT
1 37841U 11058D   26020.28318984  .00000453  00000-0  10237-3 0  9999
2 37841  19.9705 234.6854 0011747  16.9837 138.6826 14.11526453736891
ZACUBE-1
1 39417U 13066B   26019.83313066  .00007002  00000-0  56376-3 0  9997
2 39417  97.8101 341.4487 0042703  26.3881 333.9504 14.99548904658488
Delfi-N3xt
1 39428U 13066N   26020.29871377  .00019929  00000-0  18267-2 0  9992
2 39428  97.8357 300.9923 0077966 339.5280  20.2819 14.92610209652546
GOMX-1
1 39430U 13066Q   26020.25820735  .00002193  00000-0  33832-3 0  9994
2 39430  97.6577 229.9799 0129528 191.9693 167.8428 14.68819105648191
LO-74
1 39440U 13066AA  26020.29758737  .00005917  00000-0  56452-3 0  9991
2 39440  97.8757 328.9407 0059669 155.9607 204.4418 14.92354453654925
AO-73
1 39444U 13066AE  26020.18281683  .00014958  00000-0  99208-3 0  9995
2 39444  97.8118 348.9644 0038223 349.8276  10.2173 15.06758542657358
DTUSAT-2
1 40030U 14033W   26019.91874057  .00010974  00000-0  63434-3 0  9991
2 40030  98.0785   8.5626 0009255  31.0810 329.0965 15.12446491630254
EO-80
1 40032U 14033Y   26019.92682506  .00010548  00000-0  60819-3 0  9991
2 40032  98.0670   7.9126 0006896 334.5031  25.5857 15.12564645630239
LILACSAT-2
1 40908U 15049K   26020.58681775  .00059666  00000-0  12113-2 0  9999
2 40908  97.4867  52.1932 0009485  72.9363 287.2924 15.46101399572908
Horyu-4
1 41340U 16012D   26019.41796073  .00061779  00000-0  88870-3 0  9991
2 41340  30.9937  50.4852 0004991 242.0418 117.9727 15.54732252547414
Lapan A3
1 41603U 16040E   26020.30370957  .00007815  00000-0  25564-3 0  9995
2 41603  97.1441  21.4692 0010494 174.9892 185.1457 15.31910179532169
CAS-2T
1 41847U 16066G   26020.21374875  .00002356  00000-0  34123-3 0  9992
2 41847  98.3980  97.5760 0342736 218.2321 139.4114 14.44257645483438
TechnoSat
1 42829U 17042E   26020.19420599  .00007224  00000-0  52854-3 0  9990
2 42829  97.4071 183.7576 0017379 237.8853 122.0687 15.03758956464453
AO-91
1 43017U 17073E   26020.09806011  .00011531  00000-0  53008-3 0  9998
2 43017  97.4924 250.4389 0160188 118.4790 243.2680 15.09711529443025
S-Net D
1 43186U 18014G   26020.26992626  .00010687  00000-0  57688-3 0  9997
2 43186  97.5485 286.0614 0008798 158.9714 201.1882 15.14886684436350
S-Net B
1 43187U 18014H   26020.27861782  .00011062  00000-0  59731-3 0  9996
2 43187  97.5487 286.0519 0009570 155.6871 204.4815 15.14860435436352
S-Net A
1 43188U 18014J   26020.20341984  .00010042  00000-0  54215-3 0  9996
2 43188  97.5500 286.1601 0009453 156.1461 204.0211 15.14891807436345
S-Net C
1 43189U 18014K   26020.28172825  .00010894  00000-0  58818-3 0  9999
2 43189  97.5515 286.2895 0011038 150.6735 209.5118 15.14853256434905
Ten-Koh
1 43677U 18084G   26020.01886666  .00003113  00000-0  24202-3 0  9990
2 43677  98.0728 206.1982 0007803 254.2210 105.8153 15.02066551393914
PO-101
1 43678U 18084H   26020.28703534  .00002070  00000-0  17305-3 0  9999
2 43678  98.1094 210.3276 0006805 286.0407  74.0065 14.99688284394049
QO-100
1 43700U 18090A   26019.51479438  .00000159  00000-0  00000-0 0  9996
2 43700   0.0215  81.1072 0001954 274.5795 334.3719  1.00275346 26186
MinXSS-2
1 43758U 18099A   26020.13530028  .00041916  00000-0  11618-2 0  9996
2 43758  97.4736  93.0716 0009877  81.1713 279.0649 15.36783486391318
AO-95
1 43770U 18099N   26020.11227687  .00017021  00000-0  72675-3 0  9993
2 43770  97.4612  81.1256 0010156 143.2883 216.9051 15.22909443390653
SNUSat 2
1 43782U 18099AA  26020.13812417  .00012460  00000-0  59599-3 0  9991
2 43782  97.4293  75.8965 0012362  93.9850 266.2798 15.19057307390536
SnugLite
1 43784U 18099AC  26020.08942345  .00016656  00000-0  70370-3 0  9992
2 43784  97.4102  76.0381 0004410  92.1445 268.0297 15.23309672390745
ITASat 1
1 43786U 18099AE  26020.10273020  .00010851  00000-0  55504-3 0  9997
2 43786  97.4265  74.6200 0013989 144.1610 216.0565 15.16730661390440
EAGLET 1
1 43790U 18099AJ  26020.10608339  .00006140  00000-0  36533-3 0  9994
2 43790  97.4463  73.6562 0012446 132.7911 227.4368 15.11532469389951
ESEO
1 43792U 18099AL  26020.08107858  .00002048  00000-0  15360-3 0  9991
2 43792  97.4175  63.6951 0013320 115.3889 244.8718 15.03659208389546
JO-97
1 43803U 18099AX  26020.07160952  .00021583  00000-0  78533-3 0  9993
2 43803  97.4361  82.7898 0007528  79.8061 280.4027 15.28227699390966
Suomi 100
1 43804U 18099AY  26020.13528536  .00017607  00000-0  71868-3 0  9993
2 43804  97.4424  81.3138 0012160  84.2361 276.0262 15.24404262390837
ISAT
1 43879U 18111D   26019.72859611  .00040004  00000-0  84340-3 0  9990
2 43879  97.5920 306.0438 0008875 107.0747 253.1474 15.45093417388108
UWE-4
1 43880U 18111E   26019.30169564  .00027369  00000-0  76850-3 0  9993
2 43880  97.5873 301.9283 0011126 127.9352 232.2899 15.36456730387845
Sparrow
1 43881U 18111F   26020.03991850  .00066377  00000-0  12679-2 0  9997
2 43881  97.6109 310.3725 0006705 125.6522 234.5353 15.47867301388286
Prox-1
1 44339U 19036A   26020.32553227  .00024905  00000-0  27218-2 0  9993
2 44339  23.9971  18.9772 0007322 128.6754 231.4401 14.86350314351411
Taurus 1
1 44530U 19059C   26020.31040132  .00010883  00000-0  18269-2 0  9992
2 44530  98.6244 176.3156 0008582  57.1800 303.0229 14.69847067336906
TO-108
1 44881U 19093C   26020.28011259  .00000999  00000-0  11973-3 0  9996
2 44881  97.7710  96.0430 0012886 208.6141 151.4369 14.86200728329446
FloripaSat 1
1 44885U 19093G   26020.29449273  .00018542  00000-0  14205-2 0  9995
2 44885  97.7953 113.6725 0011257 198.8452 161.2357 15.01852877330431
RS-44
1 44909U 19096E   26020.24494275  .00000034  00000-0  85984-4 0  9993
2 44909  82.5191  78.0219 0218392 130.1362 231.9099 12.79746636283425
SALSAT
1 46495U 20068K   26019.93977861  .00010682  00000-0  40442-3 0  9996
2 46495  97.8809  14.2997 0012279  99.7247 260.5378 15.27054622292718
CSS (TIANHE-1)
1 48274U 21035A   26020.31883826  .00030571  00000-0  35888-3 0  9996
2 48274  41.4666 142.2108 0010731 322.2833  37.7252 15.60744012270057
CUTE
1 49263U 21088D   26019.55707721  .00030672  00000-0  35885-3 0  9995
2 49263  97.4306 109.1673 0005589 125.0250 235.1533 15.61504325239192
TeikyoSat 4
1 49396U 21102B   26020.06911009  .00002254  00000-0  14675-3 0  9992
2 49396  97.3857  55.2246 0013859  83.6334 276.6473 15.08840386230383
Z-Sat
1 49399U 21102E   26020.30787468  .00007352  00000-0  37532-3 0  9993
2 49399  97.3534  60.0913 0018305  47.2750 313.0021 15.16851177231017
KOSEN 1
1 49402U 21102H   26020.11453575  .00011180  00000-0  45853-3 0  9995
2 49402  97.3413  65.2131 0014833  17.2377 342.9362 15.24314436231448
HO-113
1 50466U 21131B   26020.32237941  .00000578  00000-0  19280-3 0  9993
2 50466  98.5025 113.5460 0004399 167.9590 192.1704 14.41170561213813
SNUGLITE 2
1 52899U 22065F   26020.21570743  .00001782  00000-0  34938-3 0  9995
2 52899  98.1954 165.5413 0008446 124.4918 235.7083 14.63963433189342
